Regional Weather Roundup
Issued by NWS

Home | Current Version | Previous Version | Text Only | Print | Product List | Glossary Off
Versions: 1 2 3 4 5 6 7 8 9 10 11 12 13 14 15 16 17 18 19 20 21 22 23 24 25 26 27 28 29 30 31 32 33 34 35 36 37 38 39 40 41 42 43 44 45 46 47 48 49 50

000
ASUS43 KMPX 221010
RWRMN
WEATHER ROUNDUP FOR MINNESOTA
NATIONAL WEATHER SERVICE TWIN CITIES/CHANHASSEN MN
500 AM CDT FRI SEP 22 2017


NOTE: "FAIR" INDICATES FEW OR NO CLOUDS BELOW 12,000 FEET WITH NO
SIGNIFICANT WEATHER AND/OR OBSTRUCTIONS TO VISIBILITY. N/A MEANS
CURRENT SKY AND/OR WEATHER CONDITIONS ARE NOT AVAILABLE.

MNZ060>063-068>070-221100-
   Twin Cities Metro

CITY           SKY/WX    TMP DP  RH WIND       PRES   REMARKS
TWIN CITIES    CLEAR     74  70  87 SE15      29.83S
ST PAUL        CLEAR     73  70  90 SE14      29.83S
CRYSTAL        CLEAR     74  67  78 SE10      29.80F
BLAINE         CLEAR     75  70  83 SE12      29.82F
LAKEVILLE      CLEAR     70  70 100 SE5       29.84S
EDEN PRAIRIE   CLEAR     74  69  85 SE12      29.81S
SOUTH ST PAUL  CLEAR     73  68  84 SE7       29.84R
LAKE ELMO      FAIR      73  70  88 SE10      29.85F
$$
MNZ001>005-007-008-013>017-022>024-027-028-221100-
   Northwest Minnesota

CITY           SKY/WX    TMP DP  RH WIND       PRES   REMARKS
BEMIDJI        CLOUDY    64  64 100 SE5       29.82R
HALLOCK          N/A     57  52  82 N9        29.84R
ROSEAU         CLOUDY    55  52  88 CALM      29.81S
WARROAD        CLOUDY    57  54  88 N5        29.82R
THIEF RVR FALL CLOUDY    62  59  90 NE7       29.79R
CROOKSTON      CLOUDY    64  61  88 N8        29.78R
FOSSTON        CLOUDY    64  61  88 E3        29.79R
DETROIT LAKES  CLOUDY    68  66  94 NE10      29.71F
MOORHEAD       CLOUDY    66  64  94 N6        29.71F FOG
PARK RAPIDS    LGT RAIN  68  66  93 CALM      29.83R
MAHNOMEN       FAIR      66  65  96 E7        29.76R
$$
MNZ006-009>011-018-025>026-221100-
   North Central Minnesota

CITY           SKY/WX    TMP DP  RH WIND       PRES   REMARKS
BAUDETTE       CLOUDY    62  61  96 SE6       29.82R
FLAG ISLAND    PTCLDY    61  57  88 SE3       29.82R
INTL FALLS     PTCLDY    60  58  92 SE6       29.83F
WASKISH        CLOUDY    63  63 100 E3        29.80F
BIG FORK       CLOUDY    66  63  88 CALM      29.84S
LONGVILLE      CLOUDY    64  63  94 CALM      29.80S FOG
GRAND RAPIDS   CLOUDY    64  62  93 CALM      29.84F
CRANE LAKE     CLOUDY    55  54  94 CALM      29.87R
ORR            CLOUDY    63  59  88 CALM      29.82F
COOK           CLOUDY    64  63  94 CALM      29.84F
WALKER         FAIR      65  64  97 CALM      29.81R
$$
MNZ012-019>021-037-221100-
   Northeast Minnesota

CITY           SKY/WX    TMP DP  RH WIND       PRES   REMARKS
DULUTH         CLOUDY    59  59 100 SE5       29.87S
ELY            DRIZZLE   66  64  94 SW6       29.89S
HIBBING        CLOUDY    59  59 100 E3        29.82F
EVELETH        CLOUDY    64  59  84 SE6       29.85F
DULUTH HARBOR  CLOUDY    61  59  94 NE12      29.87S
TWO HARBORS    CLOUDY    63  57  82 CALM      29.85F
GRAND MARAIS     N/A     62  61  96 CALM      29.88S
G MARAIS ARPRT   N/A     63  59  88 CALM      29.92F FOG
$$
MNZ029>031-032-039>041-046>048-054>057-064-221100-
   West Central Minnesota

CITY           SKY/WX    TMP DP  RH WIND       PRES   REMARKS
FERGUS FALLS   CLOUDY    66  63  88 E9        29.72F
WHEATON        MOCLDY    68  64  88 SE9       29.73S
MORRIS         CLOUDY    72  68  88 NE7       29.76F
ALEXANDRIA     CLOUDY    69  61  75 NE5       29.81F
ELBOW LAKE     FAIR      65  61  87 SE13      29.75F
WADENA         TSTM      66  63  88 SE10      29.76F
GLENWOOD       CLOUDY    73  70  88 N9        29.82R
APPLETON       PTCLDY    72  68  88 E7        29.74R FOG
BENSON         PTCLDY    73  70  88 E5        29.78R
ORTONVILLE     CLOUDY    72  70  94 E7        29.73F FOG
MADISON        CLEAR     72  72 100 NE5       29.72R FOG
WILLMAR        FAIR      73  72  94 SE7       29.77S
$$
MNZ033>034-036-042>043-049>051-058-059-221100-
   Central Minnesota

CITY           SKY/WX    TMP DP  RH WIND       PRES   REMARKS
ST CLOUD       PTCLDY    74  71  91 SE9       29.79S
SAUK CENTRE    CLOUDY    73  70  91 W8        29.81R
PAYNESVILLE    CLOUDY    74  71  89 S12G17    29.78F
AITKIN         CLOUDY    68  66  94 E6        29.78F
PINE RIVER     CLOUDY    64  64 100 SE3       29.84R THUNDER
BRAINERD       TSTM      70  68  93 SW22G31   29.87R FOG
STAPLES        TSTM      64  63  94 W5G29     29.86R
LITTLE FALLS   CLOUDY    70  66  88 SE6       29.79F THUNDER
LITCHFIELD     CLEAR     75  72  88 SE6       29.79S
BUFFALO        CLEAR     73  68  82 SE5       29.81S
MAPLE LAKE     CLEAR     74  71  90 SE5       29.80F
HUTCHINSON     CLEAR     73  71  93 SE5       29.80R
$$
MNZ037-044-045-052-053-221100-
   East Central Minnesota

CITY           SKY/WX    TMP DP  RH WIND       PRES   REMARKS
PRINCETON      MOCLDY    75  70  83 SE10      29.79F
MORA           CLEAR     70  66  88 SE6       29.82F
CAMBRIDGE      CLEAR     75  64  69 SE7       29.82S
RUSH CITY      PTCLDY    73  67  82 S8        29.83S
MOOSE LAKE     CLOUDY    59  59 100 NE3       29.83F
HINCKLEY       FAIR      72  68  88 SE6       29.83F FOG
CLOQUET        CLOUDY    61  57  88 CALM      29.86F
MCGREGOR       CLOUDY    68  64  88 CALM      29.84S
$$
MNZ071>073-080-081-089-090-097-098-221100-
   Southwest Minnesota

CITY           SKY/WX    TMP DP  RH WIND       PRES   REMARKS
MONTEVIDEO     CLEAR     72  72 100 S7        29.72F FOG
GRANITE FALLS  PTCLDY    75  73  91 SE6       29.75R
CANBY          CLEAR     78  72  83 S12G20    29.71S
MARSHALL       CLEAR     77  72  84 S17       29.72S
REDWOOD FALLS  CLEAR     75  70  84 S8        29.76R
OLIVIA         PTCLDY    72  70  94 SE7       29.75S
PIPESTONE      CLEAR     75  72  88 S10G17    29.76S
WINDOM         CLOUDY    75  70  83 S10G16    29.79S
WORTHINGTON    CLOUDY    75  71  87 S15G21    29.79S
JACKSON        PTCLDY    73  70  88 S15G22    29.82S
TRACY          CLEAR     76  73  91 S13G18    29.76R
SLAYTON        CLEAR     75  70  83 S14       29.78S
$$
MNZ065>067-074>077-082>085-091>093-221100-
   South Central Minnesota

CITY           SKY/WX    TMP DP  RH WIND       PRES   REMARKS
MANKATO        CLEAR     76  70  82 S12G18    29.82R
NEW ULM        PTCLDY    75  70  83 S14G20    29.78S
ST JAMES       PTCLDY    75  70  83 S13       29.81R
FAIRMONT       CLEAR     75  70  84 S14       29.82R
GLENCOE        CLEAR     73  72  95 SE5       29.80R
FARIBAULT      CLEAR     73  70  88 SE7       29.85R
OWATONNA       CLEAR     73  70  88 S12G17    29.86R
WASECA         CLEAR     73  68  83 S10G18    29.86R
ALBERT LEA     CLEAR     75  70  83 S8        29.87R
$$
MNZ078>079-086>088-094>096-221100-
   Southeast Minnesota

CITY           SKY/WX    TMP DP  RH WIND       PRES   REMARKS
ROCHESTER      CLEAR     71  68  90 S12       29.90S
RED WING       CLEAR     73  66  78 SE9       29.86S
STANTON        CLEAR     74  68  81 SE6       29.84R
DODGE CENTER   CLEAR     73  66  78 S15G22    29.88R
WINONA         CLEAR     72  68  88 CALM      29.91S
AUSTIN         CLEAR     73  68  83 S7        29.89R
PRESTON        CLEAR     72  67  85 S9        29.93R
$$
ABBREVIATIONS USED IN REMARKS
   TC - TEMPERATURES IN CELSIUS
  WCI - WIND CHILL INDEX
   HX - HEAT INDEX
  VSB - VISIBILITY
$$



USA.gov is the U.S. government's official web portal to all federal, state and local government web resources and services.